Time,TemperatureF,DewpointF,PressureIn,WindDirection,WindDirectionDegrees,WindSpeedMPH,WindSpeedGustMPH,Humidity,HourlyPrecipIn,Conditions,Clouds,dailyrainin,SoftwareType,DateUTC
2013-05-22 00:02:00,62.4,59.4,28.97,East,97,0.0,2.2,90,0.00,,---,0.35,VWS V14.00,2013-05-22 05:02:00,
2013-05-22 00:08:00,62.6,59.3,28.97,SW,219,0.0,0.0,89,0.00,,---,0.00,VWS V14.00,2013-05-22 05:08:00,
2013-05-22 00:11:00,62.6,59.3,28.97,SW,219,0.0,0.0,89,0.00,,---,0.00,VWS V14.00,2013-05-22 05:11:00,
2013-05-22 00:14:00,62.6,59.0,28.97,SSW,208,0.0,0.0,88,0.00,,---,0.00,VWS V14.00,2013-05-22 05:14:00,
2013-05-22 00:20:00,62.6,59.0,28.97,SSW,208,0.0,0.0,88,0.00,,---,0.00,VWS V14.00,2013-05-22 05:20:00,
2013-05-22 00:21:00,62.6,59.0,28.97,SSW,208,0.0,0.0,88,0.00,,---,0.00,VWS V14.00,2013-05-22 05:21:00,
2013-05-22 00:26:00,62.8,59.2,28.97,SSW,208,0.0,0.0,88,0.00,,---,0.00,VWS V14.00,2013-05-22 05:26:00,
2013-05-22 00:32:00,62.8,59.2,28.97,SSW,208,0.0,0.0,88,0.00,,---,0.00,VWS V14.00,2013-05-22 05:32:00,
2013-05-22 00:35:00,62.8,59.2,28.97,SW,215,0.0,0.0,88,0.00,,---,0.00,VWS V14.00,2013-05-22 05:35:00,
2013-05-22 00:38:00,62.8,58.8,28.97,SW,215,0.0,0.0,87,0.00,,---,0.00,VWS V14.00,2013-05-22 05:38:00,
2013-05-22 00:41:00,62.8,58.8,28.97,SW,215,0.0,0.0,87,0.00,,---,0.00,VWS V14.00,2013-05-22 05:41:00,
2013-05-22 00:47:00,62.6,58.7,28.97,WNW,284,0.0,0.0,87,0.00,,---,0.00,VWS V14.00,2013-05-22 05:47:00,
2013-05-22 00:50:00,62.6,58.3,28.97,West,279,0.0,0.0,86,0.00,,---,0.00,VWS V14.00,2013-05-22 05:50:00,
2013-05-22 00:51:00,62.6,58.3,28.97,West,279,0.0,0.0,86,0.00,,---,0.00,VWS V14.00,2013-05-22 05:51:00,
2013-05-22 00:56:00,62.6,58.3,28.97,South,185,0.0,0.0,86,0.00,,---,0.00,VWS V14.00,2013-05-22 05:56:00,
2013-05-22 00:59:00,62.6,58.3,28.97,South,185,0.0,0.0,86,0.00,,---,0.00,VWS V14.00,2013-05-22 05:59:00,
2013-05-22 01:02:00,62.6,58.0,28.97,South,185,0.0,0.0,85,0.00,,---,0.00,VWS V14.00,2013-05-22 06:02:00,
2013-05-22 01:06:00,62.8,57.9,28.97,South,185,0.0,0.0,84,0.00,,---,0.00,VWS V14.00,2013-05-22 06:06:00,
2013-05-22 01:08:00,62.8,57.9,28.97,South,185,0.0,0.0,84,0.00,,---,0.00,VWS V14.00,2013-05-22 06:08:00,
2013-05-22 01:14:00,62.8,57.5,28.97,North,0,0.0,0.0,83,0.00,,---,0.00,VWS V14.00,2013-05-22 06:14:00,
2013-05-22 01:17:00,62.8,57.5,28.97,North,0,0.0,0.0,83,0.00,,---,0.00,VWS V14.00,2013-05-22 06:17:00,
2013-05-22 01:20:00,62.8,57.9,28.97,North,0,0.0,0.0,84,0.00,,---,0.00,VWS V14.00,2013-05-22 06:20:00,
2013-05-22 01:21:00,62.8,57.9,28.97,North,0,0.0,0.0,84,0.00,,---,0.00,VWS V14.00,2013-05-22 06:21:00,
2013-05-22 01:23:00,62.8,57.9,28.97,North,0,0.0,0.0,84,0.00,,---,0.00,VWS V14.00,2013-05-22 06:23:00,
2013-05-22 01:26:00,62.8,57.9,28.97,North,0,0.0,0.0,84,0.00,,---,0.00,VWS V14.00,2013-05-22 06:26:00,
2013-05-22 01:29:00,62.6,57.7,28.97,SSW,213,0.0,0.0,84,0.00,,---,0.00,VWS V14.00,2013-05-22 06:29:00,
2013-05-22 01:35:00,62.6,57.7,28.97,SW,229,0.0,3.6,84,0.00,,---,0.00,VWS V14.00,2013-05-22 06:35:00,
2013-05-22 01:36:00,62.6,57.7,28.97,SW,229,0.0,3.6,84,0.00,,---,0.00,VWS V14.00,2013-05-22 06:36:00,
2013-05-22 01:38:00,62.4,57.8,28.97,SW,229,0.0,0.0,85,0.00,,---,0.00,VWS V14.00,2013-05-22 06:38:00,
2013-05-22 01:44:00,62.4,58.2,28.97,SW,229,0.0,0.0,86,0.00,,---,0.00,VWS V14.00,2013-05-22 06:44:00,
2013-05-22 01:47:00,62.2,58.0,28.97,North,353,0.0,0.0,86,0.00,,---,0.00,VWS V14.00,2013-05-22 06:47:00,
2013-05-22 01:50:00,62.2,58.0,28.97,North,353,0.0,0.0,86,0.00,,---,0.00,VWS V14.00,2013-05-22 06:50:00,
2013-05-22 01:53:00,62.2,58.0,28.97,North,353,0.0,0.0,86,0.00,,---,0.00,VWS V14.00,2013-05-22 06:53:00,
2013-05-22 01:56:00,62.2,58.0,28.97,North,353,0.0,0.0,86,0.00,,---,0.00,VWS V14.00,2013-05-22 06:56:00,
2013-05-22 01:59:00,62.2,58.0,28.94,North,353,0.0,0.0,86,0.00,,---,0.00,VWS V14.00,2013-05-22 06:59:00,
2013-05-22 02:02:00,62.0,58.1,28.94,NNW,330,0.0,0.0,87,0.00,,---,0.00,VWS V14.00,2013-05-22 07:02:00,
2013-05-22 02:05:00,62.0,58.1,28.94,NNW,330,0.0,0.0,87,0.00,,---,0.00,VWS V14.00,2013-05-22 07:05:00,
2013-05-22 02:06:00,62.0,58.1,28.94,NNW,330,0.0,0.0,87,0.00,,---,0.00,VWS V14.00,2013-05-22 07:06:00,
2013-05-22 02:08:00,62.0,58.1,28.94,NW,321,0.0,0.0,87,0.00,,---,0.00,VWS V14.00,2013-05-22 07:08:00,
2013-05-22 02:11:00,62.0,57.8,28.94,NW,321,0.0,0.0,86,0.00,,---,0.00,VWS V14.00,2013-05-22 07:11:00,
2013-05-22 02:14:00,62.0,57.8,28.94,NW,321,0.0,0.0,86,0.00,,---,0.00,VWS V14.00,2013-05-22 07:14:00,
2013-05-22 02:17:00,62.0,57.8,28.94,NW,323,0.0,0.0,86,0.00,,---,0.00,VWS V14.00,2013-05-22 07:17:00,
2013-05-22 02:20:00,62.0,58.1,28.94,NW,323,0.0,0.0,87,0.00,,---,0.00,VWS V14.00,2013-05-22 07:20:00,
2013-05-22 02:21:00,61.9,58.0,28.94,NW,323,0.0,0.0,87,0.00,,---,0.00,VWS V14.00,2013-05-22 07:21:00,
2013-05-22 02:26:00,61.9,58.3,28.94,NW,323,0.0,0.0,88,0.00,,---,0.00,VWS V14.00,2013-05-22 07:26:00,
2013-05-22 02:32:00,61.7,58.1,28.94,NW,323,0.0,0.0,88,0.00,,---,0.00,VWS V14.00,2013-05-22 07:32:00,
2013-05-22 02:35:00,61.3,57.7,28.94,NW,323,0.0,0.0,88,0.00,,---,0.00,VWS V14.00,2013-05-22 07:35:00,
2013-05-22 02:38:00,61.1,57.6,28.94,NW,323,0.0,0.0,88,0.00,,---,0.00,VWS V14.00,2013-05-22 07:38:00,
2013-05-22 02:41:00,61.1,57.6,28.94,NW,323,0.0,0.0,88,0.00,,---,0.00,VWS V14.00,2013-05-22 07:41:00,
2013-05-22 02:44:00,61.0,57.4,28.94,NW,323,0.0,0.0,88,0.00,,---,0.00,VWS V14.00,2013-05-22 07:44:00,
2013-05-22 02:47:00,60.8,57.5,28.94,NW,323,0.0,0.0,89,0.00,,---,0.00,VWS V14.00,2013-05-22 07:47:00,
2013-05-22 02:50:00,60.8,57.5,28.94,NW,323,0.0,0.0,89,0.00,,---,0.00,VWS V14.00,2013-05-22 07:50:00,
2013-05-22 02:51:00,60.8,57.5,28.94,NW,323,0.0,0.0,89,0.00,,---,0.00,VWS V14.00,2013-05-22 07:51:00,
2013-05-22 02:56:00,60.6,57.7,28.94,NW,323,0.0,0.0,90,0.00,,---,0.00,VWS V14.00,2013-05-22 07:56:00,
2013-05-22 03:00:00,60.4,57.5,28.94,NW,323,0.0,0.0,90,0.00,,---,0.00,VWS V14.00,2013-05-22 08:00:00,
2013-05-22 03:06:00,60.4,57.5,28.94,NW,308,0.0,0.0,90,0.00,,---,0.00,VWS V14.00,2013-05-22 08:06:00,
2013-05-22 03:09:00,60.2,57.6,28.94,NW,308,0.0,0.0,91,0.00,,---,0.00,VWS V14.00,2013-05-22 08:09:00,
2013-05-22 03:12:00,60.2,57.6,28.94,NW,308,0.0,0.0,91,0.00,,---,0.00,VWS V14.00,2013-05-22 08:12:00,
2013-05-22 03:18:00,60.1,57.4,28.94,NW,308,0.0,0.0,91,0.00,,---,0.00,VWS V14.00,2013-05-22 08:18:00,
2013-05-22 03:21:00,60.2,57.6,28.94,West,278,0.0,0.0,91,0.00,,---,0.00,VWS V14.00,2013-05-22 08:21:00,
2013-05-22 03:24:00,60.2,57.6,28.94,West,278,0.0,0.0,91,0.00,,---,0.00,VWS V14.00,2013-05-22 08:24:00,
2013-05-22 03:27:00,60.2,57.6,28.94,SE,137,0.0,0.0,91,0.00,,---,0.00,VWS V14.00,2013-05-22 08:27:00,
2013-05-22 03:30:00,60.2,57.6,28.94,SSW,197,0.0,0.0,91,0.00,,---,0.00,VWS V14.00,2013-05-22 08:30:00,
2013-05-22 03:33:00,60.2,57.6,28.94,SSW,197,0.0,0.0,91,0.00,,---,0.00,VWS V14.00,2013-05-22 08:33:00,
2013-05-22 03:36:00,60.1,57.4,28.94,South,189,0.0,0.0,91,0.00,,---,0.00,VWS V14.00,2013-05-22 08:36:00,
2013-05-22 03:39:00,60.1,57.4,28.94,South,189,0.0,0.0,91,0.00,,---,0.00,VWS V14.00,2013-05-22 08:39:00,
2013-05-22 03:42:00,60.1,57.4,28.94,South,189,0.0,0.0,91,0.00,,---,0.00,VWS V14.00,2013-05-22 08:42:00,
2013-05-22 03:45:00,60.1,57.1,28.94,South,189,0.0,0.0,90,0.00,,---,0.00,VWS V14.00,2013-05-22 08:45:00,
2013-05-22 03:48:00,60.1,57.1,28.94,South,189,0.0,0.0,90,0.00,,---,0.00,VWS V14.00,2013-05-22 08:48:00,
2013-05-22 03:51:00,60.1,57.1,28.97,South,189,0.0,0.0,90,0.00,,---,0.00,VWS V14.00,2013-05-22 08:51:00,
2013-05-22 03:57:00,60.2,57.3,28.97,South,189,0.0,0.0,90,0.00,,---,0.00,VWS V14.00,2013-05-22 08:57:00,
2013-05-22 04:03:00,60.2,57.3,28.97,South,189,0.0,0.0,90,0.00,,---,0.00,VWS V14.00,2013-05-22 09:03:00,
2013-05-22 04:06:00,60.1,57.1,28.97,South,189,0.0,0.0,90,0.00,,---,0.00,VWS V14.00,2013-05-22 09:06:00,
2013-05-22 04:09:00,60.1,56.8,28.97,South,189,0.0,0.0,89,0.00,,---,0.00,VWS V14.00,2013-05-22 09:09:00,
2013-05-22 04:12:00,60.1,56.8,28.97,South,189,0.0,0.0,89,0.00,,---,0.00,VWS V14.00,2013-05-22 09:12:00,
2013-05-22 04:15:00,60.1,56.8,28.97,South,189,0.0,0.0,89,0.00,,---,0.00,VWS V14.00,2013-05-22 09:15:00,
2013-05-22 04:18:00,59.7,56.8,28.97,South,189,0.0,0.0,90,0.00,,---,0.00,VWS V14.00,2013-05-22 09:18:00,
2013-05-22 04:21:00,59.7,56.8,28.97,West,274,0.0,0.0,90,0.00,,---,0.00,VWS V14.00,2013-05-22 09:21:00,
2013-05-22 04:24:00,59.7,56.8,28.97,West,261,0.0,0.0,90,0.00,,---,0.00,VWS V14.00,2013-05-22 09:24:00,
2013-05-22 04:27:00,59.7,56.8,28.97,West,261,0.0,0.0,90,0.00,,---,0.00,VWS V14.00,2013-05-22 09:27:00,
2013-05-22 04:33:00,59.5,56.6,28.97,West,261,0.0,0.0,90,0.00,,---,0.00,VWS V14.00,2013-05-22 09:33:00,
2013-05-22 04:36:00,59.5,56.6,28.94,West,261,0.0,0.0,90,0.00,,---,0.00,VWS V14.00,2013-05-22 09:36:00,
2013-05-22 04:39:00,59.5,56.6,28.94,West,261,0.0,0.0,90,0.00,,---,0.00,VWS V14.00,2013-05-22 09:39:00,
2013-05-22 04:42:00,59.5,56.6,28.94,West,261,0.0,0.0,90,0.00,,---,0.00,VWS V14.00,2013-05-22 09:42:00,
2013-05-22 04:45:00,59.5,56.6,28.94,West,261,0.0,0.0,90,0.00,,---,0.00,VWS V14.00,2013-05-22 09:45:00,
2013-05-22 04:51:00,59.5,56.6,28.94,West,261,0.0,0.0,90,0.00,,---,0.00,VWS V14.00,2013-05-22 09:51:00,
2013-05-22 04:54:00,59.2,56.5,28.97,West,261,0.0,0.0,91,0.00,,---,0.00,VWS V14.00,2013-05-22 09:54:00,
2013-05-22 04:57:00,59.2,56.5,28.97,West,261,0.0,0.0,91,0.00,,---,0.00,VWS V14.00,2013-05-22 09:57:00,
2013-05-22 05:00:00,59.2,56.5,28.97,West,261,0.0,0.0,91,0.00,,---,0.00,VWS V14.00,2013-05-22 10:00:00,
2013-05-22 05:06:00,59.0,56.7,28.97,West,261,0.0,0.0,92,0.00,,---,0.00,VWS V14.00,2013-05-22 10:06:00,
2013-05-22 05:09:00,59.0,56.7,28.97,West,261,0.0,0.0,92,0.00,,---,0.00,VWS V14.00,2013-05-22 10:09:00,
2013-05-22 05:12:00,58.8,56.5,28.97,West,261,0.0,0.0,92,0.00,,---,0.00,VWS V14.00,2013-05-22 10:12:00,
2013-05-22 05:15:00,58.8,56.5,28.97,West,261,0.0,0.0,92,0.00,,---,0.00,VWS V14.00,2013-05-22 10:15:00,
2013-05-22 05:21:00,58.8,56.5,28.97,West,261,0.0,0.0,92,0.00,,---,0.00,VWS V14.00,2013-05-22 10:21:00,
2013-05-22 05:27:00,58.6,56.6,28.97,West,261,0.0,0.0,93,0.00,,---,0.00,VWS V14.00,2013-05-22 10:27:00,
2013-05-22 05:33:00,58.4,56.4,28.97,West,261,0.0,0.0,93,0.00,,---,0.00,VWS V14.00,2013-05-22 10:33:00,
2013-05-22 05:36:00,58.4,56.7,28.97,West,261,0.0,0.0,94,0.00,,---,0.00,VWS V14.00,2013-05-22 10:36:00,
2013-05-22 05:39:00,58.4,56.7,28.97,West,261,0.0,0.0,94,0.00,,---,0.00,VWS V14.00,2013-05-22 10:39:00,
2013-05-22 05:42:00,58.3,56.5,28.97,West,261,0.0,0.0,94,0.00,,---,0.00,VWS V14.00,2013-05-22 10:42:00,
2013-05-22 05:45:00,58.3,56.5,28.97,West,261,0.0,0.0,94,0.00,,---,0.00,VWS V14.00,2013-05-22 10:45:00,
2013-05-22 05:48:00,58.1,56.4,28.97,West,261,0.0,0.0,94,0.00,,---,0.00,VWS V14.00,2013-05-22 10:48:00,
2013-05-22 05:51:00,58.1,56.4,28.97,West,261,0.0,0.0,94,0.00,,---,0.00,VWS V14.00,2013-05-22 10:51:00,
2013-05-22 05:57:00,57.9,56.2,28.97,West,261,0.0,0.0,94,0.00,,---,0.00,VWS V14.00,2013-05-22 10:57:00,
2013-05-22 06:00:00,57.9,56.2,28.97,West,261,0.0,0.0,94,0.00,,---,0.00,VWS V14.00,2013-05-22 11:00:00,
2013-05-22 06:03:00,57.9,56.2,28.97,West,261,0.0,0.0,94,0.00,,---,0.00,VWS V14.00,2013-05-22 11:03:00,
2013-05-22 06:06:00,57.7,56.0,28.97,West,261,0.0,0.0,94,0.00,,---,0.00,VWS V14.00,2013-05-22 11:06:00,
2013-05-22 06:09:00,57.7,56.0,28.97,West,261,0.0,0.0,94,0.00,,---,0.00,VWS V14.00,2013-05-22 11:09:00,
2013-05-22 06:12:00,57.7,56.0,28.97,West,261,0.0,0.0,94,0.00,,---,0.00,VWS V14.00,2013-05-22 11:12:00,
2013-05-22 06:18:00,57.7,56.0,28.97,West,261,0.0,0.0,94,0.00,,---,0.00,VWS V14.00,2013-05-22 11:18:00,
2013-05-22 06:21:00,57.7,56.0,28.97,West,261,0.0,0.0,94,0.00,,---,0.00,VWS V14.00,2013-05-22 11:21:00,
2013-05-22 06:24:00,57.7,56.0,28.97,West,261,0.0,0.0,94,0.00,,---,0.00,VWS V14.00,2013-05-22 11:24:00,
2013-05-22 06:27:00,57.9,56.2,28.97,West,261,0.0,0.0,94,0.00,,---,0.00,VWS V14.00,2013-05-22 11:27:00,
2013-05-22 06:30:00,57.9,56.2,28.97,West,261,0.0,0.0,94,0.00,,---,0.00,VWS V14.00,2013-05-22 11:30:00,
2013-05-22 06:33:00,58.1,56.4,28.97,West,261,0.0,0.0,94,0.00,,---,0.00,VWS V14.00,2013-05-22 11:33:00,
2013-05-22 06:36:00,58.1,56.4,28.97,West,261,0.0,0.0,94,0.00,,---,0.00,VWS V14.00,2013-05-22 11:36:00,
2013-05-22 06:42:00,58.3,56.5,28.97,West,261,0.0,0.0,94,0.00,,---,0.00,VWS V14.00,2013-05-22 11:42:00,
2013-05-22 06:45:00,58.3,56.5,28.97,West,261,0.0,0.0,94,0.00,,---,0.00,VWS V14.00,2013-05-22 11:45:00,
2013-05-22 06:48:00,58.4,56.7,28.97,West,261,0.0,0.0,94,0.00,,---,0.00,VWS V14.00,2013-05-22 11:48:00,
2013-05-22 06:51:00,58.6,56.9,28.97,West,261,0.0,0.0,94,0.00,,---,0.00,VWS V14.00,2013-05-22 11:51:00,
2013-05-22 06:57:00,58.8,57.1,28.97,West,261,0.0,0.0,94,0.00,,---,0.00,VWS V14.00,2013-05-22 11:57:00,
2013-05-22 07:00:00,59.0,57.3,28.97,West,261,0.0,0.0,94,0.00,,---,0.00,VWS V14.00,2013-05-22 12:00:00,
2013-05-22 07:03:00,59.2,57.1,28.97,West,261,0.0,0.0,93,0.00,,---,0.00,VWS V14.00,2013-05-22 12:03:00,
2013-05-22 07:06:00,59.3,57.3,28.97,West,261,0.0,0.0,93,0.00,,---,0.00,VWS V14.00,2013-05-22 12:06:00,
2013-05-22 07:09:00,59.3,57.3,28.97,West,261,0.0,0.0,93,0.00,,---,0.00,VWS V14.00,2013-05-22 12:09:00,
2013-05-22 07:12:00,59.5,57.5,28.97,West,261,0.0,0.0,93,0.00,,---,0.00,VWS V14.00,2013-05-22 12:12:00,
2013-05-22 07:15:00,59.7,57.4,28.97,West,261,0.0,0.0,92,0.00,,---,0.00,VWS V14.00,2013-05-22 12:15:00,
2013-05-22 07:18:00,59.9,57.5,28.97,West,261,0.0,0.0,92,0.00,,---,0.00,VWS V14.00,2013-05-22 12:18:00,
2013-05-22 07:21:00,59.9,57.5,28.97,West,261,0.0,0.0,92,0.00,,---,0.00,VWS V14.00,2013-05-22 12:21:00,
2013-05-22 07:27:00,60.4,57.8,28.97,West,261,0.0,0.0,91,0.00,,---,0.00,VWS V14.00,2013-05-22 12:27:00,
2013-05-22 07:30:00,60.6,57.7,28.97,West,261,0.0,0.0,90,0.00,,---,0.00,VWS V14.00,2013-05-22 12:30:00,
2013-05-22 07:33:00,60.6,57.3,28.97,West,261,0.0,0.0,89,0.00,,---,0.00,VWS V14.00,2013-05-22 12:33:00,
2013-05-22 07:36:00,60.8,57.5,28.97,West,261,0.0,0.0,89,0.00,,---,0.00,VWS V14.00,2013-05-22 12:36:00,
2013-05-22 07:42:00,61.1,57.6,28.97,WSW,237,0.0,0.0,88,0.00,,---,0.00,VWS V14.00,2013-05-22 12:42:00,
2013-05-22 07:45:00,61.1,57.6,28.97,WSW,237,0.0,0.0,88,0.00,,---,0.00,VWS V14.00,2013-05-22 12:45:00,
2013-05-22 07:48:00,61.3,57.1,28.97,WSW,237,0.0,0.0,86,0.00,,---,0.00,VWS V14.00,2013-05-22 12:48:00,
2013-05-22 07:51:00,61.3,57.1,28.97,WSW,237,0.0,0.0,86,0.00,,---,0.00,VWS V14.00,2013-05-22 12:51:00,
2013-05-22 07:57:00,61.9,57.3,28.97,WSW,237,0.0,0.0,85,0.00,,---,0.00,VWS V14.00,2013-05-22 12:57:00,
2013-05-22 08:00:00,61.9,57.0,28.97,WSW,237,0.0,0.0,84,0.00,,---,0.00,VWS V14.00,2013-05-22 13:00:00,
2013-05-22 08:03:00,62.0,57.5,28.97,WSW,237,0.0,0.0,85,0.00,,---,0.00,VWS V14.00,2013-05-22 13:03:00,
2013-05-22 08:06:00,62.2,57.7,28.97,WSW,237,0.0,0.0,85,0.00,,---,0.00,VWS V14.00,2013-05-22 13:06:00,
2013-05-22 08:12:00,62.6,57.7,28.97,North,357,0.0,0.0,84,0.00,,---,0.00,VWS V14.00,2013-05-22 13:12:00,
2013-05-22 08:15:00,62.8,57.9,28.97,North,357,0.0,0.0,84,0.00,,---,0.00,VWS V14.00,2013-05-22 13:15:00,
2013-05-22 08:21:00,62.9,57.7,28.97,North,357,0.0,0.0,83,0.00,,---,0.00,VWS V14.00,2013-05-22 13:21:00,
2013-05-22 08:24:00,63.3,58.1,28.97,North,357,0.0,0.0,83,0.00,,---,0.00,VWS V14.00,2013-05-22 13:24:00,
2013-05-22 08:27:00,63.3,58.1,28.97,North,357,0.0,0.0,83,0.00,,---,0.00,VWS V14.00,2013-05-22 13:27:00,
2013-05-22 08:30:00,63.3,58.1,28.97,North,357,0.0,0.0,83,0.00,,---,0.00,VWS V14.00,2013-05-22 13:30:00,
2013-05-22 08:33:00,63.7,57.7,28.97,SW,236,0.0,0.0,81,0.00,,---,0.00,VWS V14.00,2013-05-22 13:33:00,
2013-05-22 08:36:00,63.8,57.9,29.00,SW,236,0.0,0.0,81,0.00,,---,0.00,VWS V14.00,2013-05-22 13:36:00,
2013-05-22 08:39:00,63.8,57.6,29.00,West,259,0.0,0.0,80,0.00,,---,0.00,VWS V14.00,2013-05-22 13:39:00,
2013-05-22 08:42:00,64.2,57.9,29.00,NNW,331,0.0,0.0,80,0.00,,---,0.00,VWS V14.00,2013-05-22 13:42:00,
2013-05-22 08:48:00,64.2,57.9,29.00,NNW,337,0.0,0.0,80,0.00,,---,0.00,VWS V14.00,2013-05-22 13:48:00,
2013-05-22 08:51:00,64.6,57.9,29.00,NNW,340,0.0,0.0,79,0.00,,---,0.00,VWS V14.00,2013-05-22 13:51:00,
2013-05-22 08:57:00,64.7,57.7,29.00,NE,53,0.0,0.0,78,0.00,,---,0.00,VWS V14.00,2013-05-22 13:57:00,
2013-05-22 09:03:00,65.1,57.4,29.00,NE,54,0.0,0.0,76,0.00,,---,0.00,VWS V14.00,2013-05-22 14:03:00,
2013-05-22 09:09:00,65.3,57.5,29.00,NE,55,0.0,0.0,76,0.00,,---,0.00,VWS V14.00,2013-05-22 14:09:00,
2013-05-22 09:13:00,65.5,58.1,29.00,NE,55,0.0,0.0,77,0.00,,---,0.00,VWS V14.00,2013-05-22 14:13:00,
2013-05-22 09:16:00,65.8,58.4,29.00,SSW,202,0.0,0.0,77,0.00,,---,0.00,VWS V14.00,2013-05-22 14:16:00,
2013-05-22 09:19:00,65.8,57.7,29.00,SSW,211,0.0,0.0,75,0.00,,---,0.00,VWS V14.00,2013-05-22 14:19:00,
2013-05-22 09:21:00,65.8,57.7,29.00,SSW,211,0.0,0.0,75,0.00,,---,0.00,VWS V14.00,2013-05-22 14:21:00,
2013-05-22 09:22:00,65.8,57.7,29.00,SSW,211,0.0,0.0,75,0.00,,---,0.00,VWS V14.00,2013-05-22 14:22:00,
2013-05-22 09:25:00,66.0,57.1,29.00,SSW,211,0.0,0.0,73,0.00,,---,0.00,VWS V14.00,2013-05-22 14:25:00,
2013-05-22 09:28:00,66.0,56.7,29.00,SSW,211,0.0,0.0,72,0.00,,---,0.00,VWS V14.00,2013-05-22 14:28:00,
2013-05-22 09:34:00,66.4,57.8,29.00,SSW,196,0.0,0.0,74,0.00,,---,0.00,VWS V14.00,2013-05-22 14:34:00,
2013-05-22 09:36:00,66.5,57.6,29.00,SSW,196,0.0,0.0,73,0.00,,---,0.00,VWS V14.00,2013-05-22 14:36:00,
2013-05-22 09:37:00,66.5,57.6,29.00,SSW,196,0.0,0.0,73,0.00,,---,0.00,VWS V14.00,2013-05-22 14:37:00,
2013-05-22 09:43:00,66.9,57.6,29.00,SSW,196,0.0,0.0,72,0.00,,---,0.00,VWS V14.00,2013-05-22 14:43:00,
2013-05-22 09:46:00,67.1,58.2,29.00,SSW,197,0.0,0.0,73,0.00,,---,0.00,VWS V14.00,2013-05-22 14:46:00,
2013-05-22 09:51:00,67.1,58.2,29.00,SSW,197,0.0,0.0,73,0.00,,---,0.00,VWS V14.00,2013-05-22 14:51:00,
2013-05-22 09:52:00,67.1,58.2,29.00,SSW,197,0.0,0.0,73,0.00,,---,0.00,VWS V14.00,2013-05-22 14:52:00,
2013-05-22 09:55:00,67.1,58.2,29.00,SSW,197,0.0,0.0,73,0.00,,---,0.00,VWS V14.00,2013-05-22 14:55:00,
2013-05-22 09:58:00,67.1,58.2,29.00,SSW,197,0.0,0.0,73,0.00,,---,0.00,VWS V14.00,2013-05-22 14:58:00,
2013-05-22 10:01:00,67.1,58.2,29.00,SSW,197,0.0,0.0,73,0.00,,---,0.00,VWS V14.00,2013-05-22 15:01:00,
2013-05-22 10:06:00,67.1,58.2,29.00,SSW,197,0.0,0.0,73,0.00,,---,0.00,VWS V14.00,2013-05-22 15:06:00,
2013-05-22 10:07:00,67.1,58.2,29.00,SSW,197,0.0,0.0,73,0.00,,---,0.00,VWS V14.00,2013-05-22 15:07:00,
2013-05-22 10:10:00,67.1,58.2,29.00,SSW,197,0.0,0.0,73,0.00,,---,0.00,VWS V14.00,2013-05-22 15:10:00,
2013-05-22 10:16:00,67.1,58.2,29.00,NNW,338,0.0,0.0,73,0.00,,---,0.00,VWS V14.00,2013-05-22 15:16:00,
2013-05-22 10:19:00,67.1,58.2,29.00,North,353,0.0,0.0,73,0.00,,---,0.00,VWS V14.00,2013-05-22 15:19:00,
2013-05-22 10:22:00,67.1,58.2,29.00,North,353,0.0,0.0,73,0.00,,---,0.00,VWS V14.00,2013-05-22 15:22:00,
2013-05-22 10:25:00,69.6,59.8,29.00,SSE,155,0.0,0.0,71,0.00,,---,0.00,VWS V14.00,2013-05-22 15:25:00,
2013-05-22 10:28:00,69.8,59.6,29.00,SSE,155,0.0,0.0,70,0.00,,---,0.00,VWS V14.00,2013-05-22 15:28:00,
2013-05-22 10:31:00,69.8,59.6,29.00,SSE,154,0.0,0.0,70,0.00,,---,0.00,VWS V14.00,2013-05-22 15:31:00,
2013-05-22 10:34:00,69.8,59.6,29.00,SSE,154,0.0,0.0,70,0.00,,---,0.00,VWS V14.00,2013-05-22 15:34:00,
2013-05-22 10:37:00,70.3,59.7,29.00,North,9,0.0,0.0,69,0.00,,---,0.00,VWS V14.00,2013-05-22 15:37:00,
2013-05-22 10:40:00,70.3,59.7,29.00,North,353,0.0,0.0,69,0.00,,---,0.00,VWS V14.00,2013-05-22 15:40:00,
2013-05-22 10:43:00,70.3,59.7,29.00,NNW,336,0.0,0.0,69,0.00,,---,0.00,VWS V14.00,2013-05-22 15:43:00,
2013-05-22 10:49:00,70.3,59.7,29.00,North,0,0.0,0.0,69,0.00,,---,0.00,VWS V14.00,2013-05-22 15:49:00,
2013-05-22 10:52:00,70.3,59.7,29.00,North,10,0.0,0.0,69,0.00,,---,0.00,VWS V14.00,2013-05-22 15:52:00,
2013-05-22 10:55:00,71.2,59.7,29.00,North,0,0.0,0.0,67,0.00,,---,0.00,VWS V14.00,2013-05-22 15:55:00,
2013-05-22 11:01:00,71.4,59.0,29.00,NNW,335,0.0,0.0,65,0.00,,---,0.00,VWS V14.00,2013-05-22 16:01:00,
2013-05-22 11:04:00,71.4,59.0,29.00,SSW,193,0.0,0.0,65,0.00,,---,0.00,VWS V14.00,2013-05-22 16:04:00,
2013-05-22 11:10:00,71.4,59.0,29.03,North,10,0.0,0.0,65,0.00,,---,0.00,VWS V14.00,2013-05-22 16:10:00,
2013-05-22 11:16:00,71.4,59.0,29.03,SE,139,0.0,0.0,65,0.00,,---,0.00,VWS V14.00,2013-05-22 16:16:00,
2013-05-22 11:19:00,71.4,59.0,29.03,South,191,0.0,0.0,65,0.00,,---,0.00,VWS V14.00,2013-05-22 16:19:00,
2013-05-22 11:22:00,71.4,59.0,29.03,South,191,0.0,0.0,65,0.00,,---,0.00,VWS V14.00,2013-05-22 16:22:00,
2013-05-22 11:25:00,71.4,59.0,29.03,ENE,67,0.0,0.0,65,0.00,,---,0.00,VWS V14.00,2013-05-22 16:25:00,
2013-05-22 11:28:00,71.4,59.0,29.03,South,181,0.0,0.0,65,0.00,,---,0.00,VWS V14.00,2013-05-22 16:28:00,
2013-05-22 11:31:00,71.4,59.0,29.00,South,181,0.0,0.0,65,0.00,,---,0.00,VWS V14.00,2013-05-22 16:31:00,
2013-05-22 11:36:00,71.4,59.0,29.00,SSE,150,0.0,0.0,65,0.00,,---,0.00,VWS V14.00,2013-05-22 16:36:00,
2013-05-22 11:37:00,71.4,59.0,29.00,SSE,168,0.0,0.0,65,0.00,,---,0.00,VWS V14.00,2013-05-22 16:37:00,
2013-05-22 11:40:00,71.4,59.0,29.03,SSW,212,2.2,2.2,65,0.00,,---,0.00,VWS V14.00,2013-05-22 16:40:00,
2013-05-22 11:43:00,71.4,59.0,29.03,South,186,0.0,2.2,65,0.00,,---,0.00,VWS V14.00,2013-05-22 16:43:00,
2013-05-22 11:49:00,71.4,59.0,29.03,SSE,165,2.2,3.1,65,0.00,,---,0.00,VWS V14.00,2013-05-22 16:49:00,
2013-05-22 11:52:00,71.4,59.0,29.03,South,171,2.7,2.7,65,0.00,,---,0.00,VWS V14.00,2013-05-22 16:52:00,
2013-05-22 11:58:00,71.4,59.0,29.00,SSE,158,0.0,2.7,65,0.00,,---,0.00,VWS V14.00,2013-05-22 16:58:00,
2013-05-22 12:01:00,71.4,59.0,29.00,SSE,158,0.0,2.7,65,0.00,,---,0.00,VWS V14.00,2013-05-22 17:01:00,
2013-05-22 12:04:00,71.4,59.0,29.00,SSE,168,3.1,3.1,65,0.00,,---,0.00,VWS V14.00,2013-05-22 17:04:00,
2013-05-22 12:06:00,71.4,59.0,29.00,SSE,168,0.0,3.1,65,0.00,,---,0.00,VWS V14.00,2013-05-22 17:06:00,
2013-05-22 12:07:00,75.0,59.7,29.00,SSE,168,0.0,0.0,59,0.00,,---,0.00,VWS V14.00,2013-05-22 17:07:00,
2013-05-22 12:13:00,75.0,59.7,29.00,NE,38,2.7,3.1,59,0.00,,---,0.00,VWS V14.00,2013-05-22 17:13:00,
2013-05-22 12:16:00,75.0,59.7,29.00,SSW,196,5.4,5.4,59,0.00,,---,0.00,VWS V14.00,2013-05-22 17:16:00,
2013-05-22 12:19:00,75.0,59.7,29.00,NNW,337,4.0,5.4,59,0.00,,---,0.00,VWS V14.00,2013-05-22 17:19:00,
2013-05-22 12:25:00,75.0,59.7,29.00,SSW,213,0.0,4.0,59,0.00,,---,0.00,VWS V14.00,2013-05-22 17:25:00,
2013-05-22 12:28:00,75.0,59.7,29.00,SSW,199,0.0,4.0,59,0.00,,---,0.00,VWS V14.00,2013-05-22 17:28:00,
2013-05-22 12:31:00,75.0,59.7,29.00,NW,324,0.0,4.0,59,0.00,,---,0.00,VWS V14.00,2013-05-22 17:31:00,
2013-05-22 12:36:00,75.0,59.7,29.00,North,6,0.0,4.0,59,0.00,,---,0.00,VWS V14.00,2013-05-22 17:36:00,
2013-05-22 12:40:00,75.0,59.7,29.00,NNE,26,0.0,3.1,59,0.00,,---,0.00,VWS V14.00,2013-05-22 17:40:00,
2013-05-22 12:46:00,75.0,59.7,29.00,SW,235,3.6,3.6,59,0.00,,---,0.00,VWS V14.00,2013-05-22 17:46:00,
2013-05-22 12:49:00,75.0,59.7,29.00,SSW,198,0.0,3.6,59,0.00,,---,0.00,VWS V14.00,2013-05-22 17:49:00,
2013-05-22 12:51:00,75.0,59.7,29.00,SSW,198,0.0,3.6,59,0.00,,---,0.00,VWS V14.00,2013-05-22 17:51:00,
2013-05-22 12:52:00,75.0,59.7,29.00,SW,228,0.0,4.0,59,0.00,,---,0.00,VWS V14.00,2013-05-22 17:52:00,
2013-05-22 12:55:00,75.0,59.7,29.00,NNE,30,2.2,4.0,59,0.00,,---,0.00,VWS V14.00,2013-05-22 17:55:00,
2013-05-22 12:58:00,75.0,59.7,29.00,SW,235,3.6,4.0,59,0.00,,---,0.00,VWS V14.00,2013-05-22 17:58:00,
2013-05-22 13:01:00,75.0,59.7,29.00,WSW,254,0.0,4.0,59,0.00,,---,0.00,VWS V14.00,2013-05-22 18:01:00,
2013-05-22 13:04:00,75.0,59.7,29.00,SE,129,0.0,4.0,59,0.00,,---,0.00,VWS V14.00,2013-05-22 18:04:00,
2013-05-22 13:07:00,75.0,59.7,29.00,South,182,0.0,0.0,59,0.00,,---,0.00,VWS V14.00,2013-05-22 18:07:00,
2013-05-22 13:10:00,75.0,59.7,29.00,NW,312,3.1,4.0,59,0.00,,---,0.00,VWS V14.00,2013-05-22 18:10:00,
2013-05-22 13:13:00,75.0,59.7,29.00,WNW,283,3.1,4.0,59,0.00,,---,0.00,VWS V14.00,2013-05-22 18:13:00,
2013-05-22 13:19:00,75.0,59.7,29.00,SW,231,2.7,4.0,59,0.00,,---,0.00,VWS V14.00,2013-05-22 18:19:00,
2013-05-22 13:22:00,78.1,55.0,29.00,SSW,212,2.2,2.7,45,0.00,,---,0.00,VWS V14.00,2013-05-22 18:22:00,
2013-05-22 13:25:00,78.1,55.0,29.00,SSW,201,2.2,2.7,45,0.00,,---,0.00,VWS V14.00,2013-05-22 18:25:00,
2013-05-22 13:28:00,78.1,55.0,29.00,South,181,0.0,2.7,45,0.00,,---,0.00,VWS V14.00,2013-05-22 18:28:00,
2013-05-22 13:34:00,78.4,56.0,29.00,South,177,2.2,3.1,46,0.00,,---,0.00,VWS V14.00,2013-05-22 18:34:00,
2013-05-22 13:37:00,78.4,56.0,29.00,SSW,207,3.1,3.1,46,0.00,,---,0.00,VWS V14.00,2013-05-22 18:37:00,
2013-05-22 13:40:00,78.8,55.7,29.00,SSW,199,0.0,3.1,45,0.00,,---,0.00,VWS V14.00,2013-05-22 18:40:00,
2013-05-22 13:43:00,79.0,55.8,29.00,SSW,199,0.0,3.1,45,0.00,,---,0.00,VWS V14.00,2013-05-22 18:43:00,
2013-05-22 13:46:00,79.0,55.8,29.00,South,172,3.6,3.6,45,0.00,,---,0.00,VWS V14.00,2013-05-22 18:46:00,
2013-05-22 13:49:00,79.0,55.8,29.00,NNE,24,3.6,3.6,45,0.00,,---,0.00,VWS V14.00,2013-05-22 18:49:00,
2013-05-22 13:51:00,79.0,55.8,29.00,NNE,24,3.6,3.6,45,0.00,,---,0.00,VWS V14.00,2013-05-22 18:51:00,
2013-05-22 13:58:00,79.0,55.8,29.00,NNE,32,0.0,3.6,45,0.00,,---,0.00,VWS V14.00,2013-05-22 18:58:00,
2013-05-22 14:04:00,79.0,55.2,29.00,NNW,341,0.0,3.6,44,0.00,,---,0.00,VWS V14.00,2013-05-22 19:04:00,
2013-05-22 14:06:00,79.0,55.2,29.00,NNW,341,0.0,3.6,44,0.00,,---,0.00,VWS V14.00,2013-05-22 19:06:00,
2013-05-22 14:13:00,79.1,55.4,29.00,SSW,206,2.7,3.6,44,0.00,,---,0.00,VWS V14.00,2013-05-22 19:13:00,
2013-05-22 14:16:00,79.1,55.4,29.00,WSW,252,4.0,4.0,44,0.00,,---,0.00,VWS V14.00,2013-05-22 19:16:00,
2013-05-22 14:19:00,79.1,55.4,29.00,SSW,201,2.7,4.0,44,0.00,,---,0.00,VWS V14.00,2013-05-22 19:19:00,
2013-05-22 14:21:00,79.1,55.4,29.00,SW,227,0.0,4.0,44,0.00,,---,0.00,VWS V14.00,2013-05-22 19:21:00,
2013-05-22 14:22:00,79.1,55.4,29.00,SW,227,0.0,0.0,44,0.00,,---,0.00,VWS V14.00,2013-05-22 19:22:00,
2013-05-22 14:28:00,79.1,55.4,29.00,East,88,2.7,3.6,44,0.00,,---,0.00,VWS V14.00,2013-05-22 19:28:00,
2013-05-22 14:31:00,79.1,55.4,29.00,South,190,0.0,3.6,44,0.00,,---,0.00,VWS V14.00,2013-05-22 19:31:00,
2013-05-22 14:36:00,79.0,55.2,29.00,ESE,119,2.7,3.6,44,0.00,,---,0.00,VWS V14.00,2013-05-22 19:36:00,
2013-05-22 14:37:00,79.0,55.2,29.00,NNE,24,2.7,2.7,44,0.00,,---,0.00,VWS V14.00,2013-05-22 19:37:00,
2013-05-22 14:40:00,79.0,55.2,29.00,North,349,0.0,2.7,44,0.00,,---,0.00,VWS V14.00,2013-05-22 19:40:00,
2013-05-22 14:43:00,79.0,55.2,29.00,North,0,2.2,2.7,44,0.00,,---,0.00,VWS V14.00,2013-05-22 19:43:00,
2013-05-22 14:46:00,79.0,55.2,29.00,SSW,196,0.0,2.7,44,0.00,,---,0.00,VWS V14.00,2013-05-22 19:46:00,
2013-05-22 14:49:00,79.0,55.2,29.00,NNE,30,2.7,2.7,44,0.00,,---,0.00,VWS V14.00,2013-05-22 19:49:00,
2013-05-22 14:52:00,79.0,55.2,29.00,South,185,0.0,2.7,44,0.00,,---,0.00,VWS V14.00,2013-05-22 19:52:00,
2013-05-22 14:55:00,79.9,56.0,29.00,SSW,200,0.0,2.7,44,0.00,,---,0.00,VWS V14.00,2013-05-22 19:55:00,
2013-05-22 14:58:00,79.9,55.4,29.00,NE,37,2.2,3.1,43,0.00,,---,0.00,VWS V14.00,2013-05-22 19:58:00,
2013-05-22 15:04:00,79.9,55.4,29.00,NE,43,2.2,3.1,43,0.00,,---,0.00,VWS V14.00,2013-05-22 20:04:00,
2013-05-22 15:08:00,79.9,55.4,29.00,SSW,193,3.6,3.6,43,0.00,,---,0.00,VWS V14.00,2013-05-22 20:08:00,
2013-05-22 15:11:00,79.9,55.4,29.00,SSW,204,2.2,3.6,43,0.00,,---,0.00,VWS V14.00,2013-05-22 20:11:00,
2013-05-22 15:14:00,79.9,55.4,29.00,SW,234,0.0,3.6,43,0.00,,---,0.00,VWS V14.00,2013-05-22 20:14:00,
2013-05-22 15:17:00,79.9,55.4,29.00,ESE,123,2.2,3.6,43,0.00,,---,0.00,VWS V14.00,2013-05-22 20:17:00,
2013-05-22 15:20:00,79.9,55.4,29.00,SSE,160,3.1,3.6,43,0.00,,---,0.00,VWS V14.00,2013-05-22 20:20:00,
2013-05-22 15:21:00,79.9,55.4,29.00,SSE,160,2.7,3.6,43,0.00,,---,0.00,VWS V14.00,2013-05-22 20:21:00,
2013-05-22 15:26:00,79.9,55.4,29.00,NW,324,3.1,3.1,43,0.00,,---,0.00,VWS V14.00,2013-05-22 20:26:00,
2013-05-22 15:29:00,80.8,56.2,29.00,NW,324,3.1,3.1,43,0.00,,---,0.00,VWS V14.00,2013-05-22 20:29:00,
2013-05-22 15:32:00,80.8,56.2,29.00,SE,130,0.0,3.1,43,0.00,,---,0.00,VWS V14.00,2013-05-22 20:32:00,
2013-05-22 15:36:00,80.8,56.2,29.00,West,278,2.2,3.1,43,0.00,,---,0.00,VWS V14.00,2013-05-22 20:36:00,
2013-05-22 15:44:00,81.5,56.2,29.00,SW,214,0.0,3.6,42,0.00,,---,0.00,VWS V14.00,2013-05-22 20:44:00,
2013-05-22 15:47:00,81.5,56.2,29.00,SW,230,2.2,3.6,42,0.00,,---,0.00,VWS V14.00,2013-05-22 20:47:00,
2013-05-22 15:50:00,81.5,56.2,29.00,East,96,2.7,3.6,42,0.00,,---,0.00,VWS V14.00,2013-05-22 20:50:00,
2013-05-22 15:51:00,81.5,56.2,29.00,East,96,2.7,3.6,42,0.00,,---,0.00,VWS V14.00,2013-05-22 20:51:00,
2013-05-22 15:53:00,81.5,56.2,29.00,SW,214,0.0,2.7,42,0.00,,---,0.00,VWS V14.00,2013-05-22 20:53:00,
2013-05-22 15:56:00,81.5,56.2,29.00,SW,230,0.0,2.7,42,0.00,,---,0.00,VWS V14.00,2013-05-22 20:56:00,
2013-05-22 16:02:00,81.8,56.5,29.00,SSW,206,0.0,2.7,42,0.00,,---,0.00,VWS V14.00,2013-05-22 21:02:00,
2013-05-22 16:05:00,81.8,56.5,29.00,West,271,3.1,3.1,42,0.00,,---,0.00,VWS V14.00,2013-05-22 21:05:00,
2013-05-22 16:08:00,81.5,56.2,29.00,East,85,3.6,3.6,42,0.00,,---,0.00,VWS V14.00,2013-05-22 21:08:00,
2013-05-22 16:11:00,80.9,55.7,29.00,NE,35,2.2,4.0,42,0.00,,---,0.00,VWS V14.00,2013-05-22 21:11:00,
2013-05-22 16:14:00,81.1,55.9,29.00,ENE,57,0.0,4.0,42,0.00,,---,0.00,VWS V14.00,2013-05-22 21:14:00,
2013-05-22 16:20:00,81.1,55.9,29.00,SW,214,0.0,4.0,42,0.00,,---,0.00,VWS V14.00,2013-05-22 21:20:00,
2013-05-22 16:21:00,82.4,57.0,29.00,SW,214,0.0,4.0,42,0.00,,---,0.00,VWS V14.00,2013-05-22 21:21:00,
2013-05-22 16:26:00,82.4,57.0,29.00,South,170,2.7,2.7,42,0.00,,---,0.00,VWS V14.00,2013-05-22 21:26:00,
2013-05-22 16:32:00,82.4,57.0,29.00,SSE,160,0.0,2.7,42,0.00,,---,0.00,VWS V14.00,2013-05-22 21:32:00,
2013-05-22 16:35:00,82.4,57.0,29.00,SW,231,2.7,2.7,42,0.00,,---,0.00,VWS V14.00,2013-05-22 21:35:00,
2013-05-22 16:36:00,82.4,57.0,29.00,North,11,0.0,2.7,42,0.00,,---,0.00,VWS V14.00,2013-05-22 21:36:00,
2013-05-22 16:41:00,83.8,57.6,28.97,SW,234,0.0,0.0,41,0.00,,---,0.00,VWS V14.00,2013-05-22 21:41:00,
2013-05-22 16:44:00,83.8,57.6,28.97,SSW,198,0.0,0.0,41,0.00,,---,0.00,VWS V14.00,2013-05-22 21:44:00,
2013-05-22 16:50:00,83.8,57.6,28.97,South,190,0.0,0.0,41,0.00,,---,0.00,VWS V14.00,2013-05-22 21:50:00,
2013-05-22 16:51:00,83.8,57.6,28.97,South,190,0.0,0.0,41,0.00,,---,0.00,VWS V14.00,2013-05-22 21:51:00,
2013-05-22 16:56:00,83.8,57.6,29.00,SSW,205,0.0,2.7,41,0.00,,---,0.00,VWS V14.00,2013-05-22 21:56:00,
2013-05-22 17:02:00,83.8,57.6,29.00,ENE,77,0.0,2.7,41,0.00,,---,0.00,VWS V14.00,2013-05-22 22:02:00,
2013-05-22 17:05:00,83.8,57.6,29.00,East,85,0.0,2.7,41,0.00,,---,0.00,VWS V14.00,2013-05-22 22:05:00,
2013-05-22 17:06:00,83.8,57.6,29.00,East,85,0.0,2.7,41,0.00,,---,0.00,VWS V14.00,2013-05-22 22:06:00,
2013-05-22 17:11:00,83.8,57.6,29.00,SSW,198,0.0,0.0,41,0.00,,---,0.00,VWS V14.00,2013-05-22 22:11:00,
2013-05-22 17:14:00,91.4,60.7,29.00,South,187,2.2,2.2,36,0.00,,---,0.00,VWS V14.00,2013-05-22 22:14:00,
2013-05-22 17:20:00,91.4,60.7,29.00,ESE,117,0.0,2.2,36,0.00,,---,0.00,VWS V14.00,2013-05-22 22:20:00,
2013-05-22 17:26:00,93.0,61.3,29.00,SSW,192,0.0,2.7,35,0.00,,---,0.00,VWS V14.00,2013-05-22 22:26:00,
2013-05-22 17:32:00,93.4,60.8,29.00,SSW,192,0.0,2.7,34,0.00,,---,0.00,VWS V14.00,2013-05-22 22:32:00,
2013-05-22 17:35:00,93.4,60.8,29.00,SSW,200,0.0,2.7,34,0.00,,---,0.00,VWS V14.00,2013-05-22 22:35:00,
2013-05-22 17:36:00,93.4,60.8,29.00,SSW,200,0.0,2.7,34,0.00,,---,0.00,VWS V14.00,2013-05-22 22:36:00,
2013-05-22 17:41:00,90.3,58.2,29.00,SSW,198,0.0,0.0,34,0.00,,---,0.00,VWS V14.00,2013-05-22 22:41:00,
2013-05-22 17:44:00,90.3,58.2,29.00,SSW,194,0.0,0.0,34,0.00,,---,0.00,VWS V14.00,2013-05-22 22:44:00,
2013-05-22 17:50:00,87.8,56.8,29.00,SW,223,0.0,0.0,35,0.00,,---,0.00,VWS V14.00,2013-05-22 22:50:00,
2013-05-22 17:51:00,87.8,56.8,29.00,SW,223,0.0,0.0,35,0.00,,---,0.00,VWS V14.00,2013-05-22 22:51:00,
2013-05-22 17:53:00,87.8,56.8,29.00,SW,223,0.0,0.0,35,0.00,,---,0.00,VWS V14.00,2013-05-22 22:53:00,
2013-05-22 17:56:00,84.7,55.6,29.00,SW,223,0.0,0.0,37,0.00,,---,0.00,VWS V14.00,2013-05-22 22:56:00,
2013-05-22 18:02:00,84.7,55.6,29.00,SSE,163,0.0,2.2,37,0.00,,---,0.00,VWS V14.00,2013-05-22 23:02:00,
2013-05-22 18:05:00,82.7,54.6,29.00,SSW,209,0.0,2.2,38,0.00,,---,0.00,VWS V14.00,2013-05-22 23:05:00,
2013-05-22 18:11:00,82.9,55.5,29.00,SW,220,0.0,2.2,39,0.00,,---,0.00,VWS V14.00,2013-05-22 23:11:00,
2013-05-22 18:14:00,83.1,55.6,29.00,SW,220,0.0,2.2,39,0.00,,---,0.00,VWS V14.00,2013-05-22 23:14:00,
2013-05-22 18:17:00,82.0,54.6,29.00,SW,220,0.0,2.2,39,0.00,,---,0.00,VWS V14.00,2013-05-22 23:17:00,
2013-05-22 18:20:00,81.8,54.5,29.00,SW,220,0.0,2.2,39,0.00,,---,0.00,VWS V14.00,2013-05-22 23:20:00,
2013-05-22 18:23:00,81.8,54.5,29.00,SW,220,0.0,0.0,39,0.00,,---,0.00,VWS V14.00,2013-05-22 23:23:00,
2013-05-22 18:26:00,81.8,54.5,29.00,SSW,207,0.0,0.0,39,0.00,,---,0.00,VWS V14.00,2013-05-22 23:26:00,
2013-05-22 18:29:00,80.4,53.9,29.00,SSW,194,0.0,0.0,40,0.00,,---,0.00,VWS V14.00,2013-05-22 23:29:00,
2013-05-22 18:35:00,80.4,53.9,29.00,SSW,194,0.0,0.0,40,0.00,,---,0.00,VWS V14.00,2013-05-22 23:35:00,
2013-05-22 18:36:00,80.9,55.0,29.00,SSW,194,0.0,0.0,41,0.00,,---,0.00,VWS V14.00,2013-05-22 23:36:00,
2013-05-22 18:41:00,80.6,54.7,29.00,ESE,103,0.0,0.0,41,0.00,,---,0.00,VWS V14.00,2013-05-22 23:41:00,
2013-05-22 18:44:00,80.6,54.7,29.00,WSW,239,3.1,3.1,41,0.00,,---,0.00,VWS V14.00,2013-05-22 23:44:00,
2013-05-22 18:47:00,79.3,53.6,29.00,SW,227,0.0,3.1,41,0.00,,---,0.00,VWS V14.00,2013-05-22 23:47:00,
2013-05-22 18:50:00,79.3,53.6,29.00,SW,227,0.0,3.1,41,0.00,,---,0.00,VWS V14.00,2013-05-22 23:50:00,
2013-05-22 18:51:00,79.3,53.6,29.00,SW,227,0.0,3.1,41,0.00,,---,0.00,VWS V14.00,2013-05-22 23:51:00,
2013-05-22 18:53:00,79.3,53.6,29.00,SW,227,0.0,0.0,41,0.00,,---,0.00,VWS V14.00,2013-05-22 23:53:00,
2013-05-22 18:59:00,79.3,53.6,29.00,SSW,192,4.0,4.0,41,0.00,,---,0.00,VWS V14.00,2013-05-22 23:59:00,
2013-05-22 19:02:00,76.8,52.6,29.00,SSW,192,4.0,4.0,43,0.00,,---,0.00,VWS V14.00,2013-05-23 00:02:00,
2013-05-22 19:05:00,76.3,52.8,29.00,SSW,196,0.0,4.0,44,0.00,,---,0.00,VWS V14.00,2013-05-23 00:05:00,
2013-05-22 19:08:00,75.7,52.9,29.00,SSW,198,0.0,0.0,45,0.00,,---,0.00,VWS V14.00,2013-05-23 00:08:00,
2013-05-22 19:11:00,75.7,52.9,29.00,SSW,198,0.0,0.0,45,0.00,,---,0.00,VWS V14.00,2013-05-23 00:11:00,
2013-05-22 19:14:00,75.2,53.0,29.00,SSW,198,0.0,0.0,46,0.00,,---,0.00,VWS V14.00,2013-05-23 00:14:00,
2013-05-22 19:17:00,75.2,53.0,29.00,SSW,198,0.0,0.0,46,0.00,,---,0.00,VWS V14.00,2013-05-23 00:17:00,
2013-05-22 19:20:00,74.6,53.1,29.00,SSW,198,0.0,0.0,47,0.00,,---,0.00,VWS V14.00,2013-05-23 00:20:00,
2013-05-22 19:21:00,74.6,53.1,29.00,SSW,198,0.0,0.0,47,0.00,,---,0.00,VWS V14.00,2013-05-23 00:21:00,
2013-05-22 19:23:00,74.6,53.1,29.00,SSW,198,0.0,0.0,47,0.00,,---,0.00,VWS V14.00,2013-05-23 00:23:00,
2013-05-22 19:29:00,74.6,53.1,29.00,SW,223,0.0,2.2,47,0.00,,---,0.00,VWS V14.00,2013-05-23 00:29:00,
2013-05-22 19:32:00,74.6,53.1,29.00,SW,224,0.0,2.2,47,0.00,,---,0.00,VWS V14.00,2013-05-23 00:32:00,
2013-05-22 19:35:00,74.6,53.1,29.00,SW,224,0.0,2.2,47,0.00,,---,0.00,VWS V14.00,2013-05-23 00:35:00,
2013-05-22 19:36:00,74.6,53.1,29.00,SW,224,0.0,2.2,47,0.00,,---,0.00,VWS V14.00,2013-05-23 00:36:00,
2013-05-22 19:38:00,74.6,53.1,29.00,SW,224,0.0,0.0,47,0.00,,---,0.00,VWS V14.00,2013-05-23 00:38:00,
2013-05-22 19:41:00,74.6,53.1,29.00,SW,224,0.0,0.0,47,0.00,,---,0.00,VWS V14.00,2013-05-23 00:41:00,
2013-05-22 19:44:00,74.6,53.1,29.00,SW,224,0.0,0.0,47,0.00,,---,0.00,VWS V14.00,2013-05-23 00:44:00,
2013-05-22 19:47:00,72.5,53.9,29.00,SW,224,0.0,0.0,52,0.00,,---,0.00,VWS V14.00,2013-05-23 00:47:00,
2013-05-22 19:50:00,72.5,53.9,29.00,SW,224,0.0,0.0,52,0.00,,---,0.00,VWS V14.00,2013-05-23 00:50:00,
2013-05-22 19:51:00,72.5,53.9,29.00,SW,224,0.0,0.0,52,0.00,,---,0.00,VWS V14.00,2013-05-23 00:51:00,
2013-05-22 19:56:00,72.5,53.9,29.03,SW,224,0.0,0.0,52,0.00,,---,0.00,VWS V14.00,2013-05-23 00:56:00,
2013-05-22 20:02:00,71.4,54.9,29.03,SW,224,0.0,0.0,56,0.00,,---,0.00,VWS V14.00,2013-05-23 01:02:00,
2013-05-22 20:05:00,71.4,54.9,29.03,SW,224,0.0,0.0,56,0.00,,---,0.00,VWS V14.00,2013-05-23 01:05:00,
2013-05-22 20:06:00,71.4,54.9,29.03,SW,224,0.0,0.0,56,0.00,,---,0.00,VWS V14.00,2013-05-23 01:06:00,
2013-05-22 20:11:00,71.4,54.9,29.03,SW,224,0.0,0.0,56,0.00,,---,0.00,VWS V14.00,2013-05-23 01:11:00,
2013-05-22 20:14:00,71.4,54.9,29.03,SW,224,0.0,0.0,56,0.00,,---,0.00,VWS V14.00,2013-05-23 01:14:00,
2013-05-22 20:17:00,71.4,54.9,29.03,SW,224,0.0,0.0,56,0.00,,---,0.00,VWS V14.00,2013-05-23 01:17:00,
2013-05-22 20:21:00,71.4,54.9,29.03,SW,224,0.0,0.0,56,0.00,,---,0.00,VWS V14.00,2013-05-23 01:21:00,
2013-05-22 20:23:00,70.1,56.1,29.03,SW,224,0.0,0.0,61,0.00,,---,0.00,VWS V14.00,2013-05-23 01:23:00,
2013-05-22 20:26:00,70.1,56.1,29.03,SW,224,0.0,0.0,61,0.00,,---,0.00,VWS V14.00,2013-05-23 01:26:00,
2013-05-22 20:29:00,69.6,56.9,29.03,SW,224,0.0,0.0,64,0.00,,---,0.00,VWS V14.00,2013-05-23 01:29:00,
2013-05-22 20:32:00,69.6,56.9,29.03,SW,224,0.0,0.0,64,0.00,,---,0.00,VWS V14.00,2013-05-23 01:32:00,
2013-05-22 20:35:00,69.2,57.0,29.03,SW,224,0.0,0.0,65,0.00,,---,0.00,VWS V14.00,2013-05-23 01:35:00,
2013-05-22 20:36:00,69.2,57.0,29.03,SW,224,0.0,0.0,65,0.00,,---,0.00,VWS V14.00,2013-05-23 01:36:00,
2013-05-22 20:41:00,68.9,57.9,29.03,SW,224,0.0,0.0,68,0.00,,---,0.00,VWS V14.00,2013-05-23 01:41:00,
2013-05-22 20:44:00,68.9,57.9,29.03,SW,224,0.0,0.0,68,0.00,,---,0.00,VWS V14.00,2013-05-23 01:44:00,
2013-05-22 20:47:00,68.5,58.0,29.03,SW,224,0.0,0.0,69,0.00,,---,0.00,VWS V14.00,2013-05-23 01:47:00,
2013-05-22 20:50:00,68.5,58.0,29.03,SW,224,0.0,0.0,69,0.00,,---,0.00,VWS V14.00,2013-05-23 01:50:00,
2013-05-22 20:53:00,68.0,57.0,29.03,SW,224,0.0,0.0,68,0.00,,---,0.00,VWS V14.00,2013-05-23 01:53:00,
2013-05-22 20:56:00,68.0,57.0,29.03,SW,224,0.0,0.0,68,0.00,,---,0.00,VWS V14.00,2013-05-23 01:56:00,
2013-05-22 20:59:00,68.0,57.0,29.03,SW,224,0.0,0.0,68,0.00,,---,0.00,VWS V14.00,2013-05-23 01:59:00,
2013-05-22 21:02:00,68.0,57.0,29.03,SW,224,0.0,0.0,68,0.00,,---,0.00,VWS V14.00,2013-05-23 02:02:00,
2013-05-22 21:05:00,68.0,57.0,29.03,SW,224,0.0,0.0,68,0.00,,---,0.00,VWS V14.00,2013-05-23 02:05:00,
2013-05-22 21:08:00,67.1,57.4,29.03,SW,224,0.0,0.0,71,0.00,,---,0.00,VWS V14.00,2013-05-23 02:08:00,
2013-05-22 21:11:00,66.7,57.0,29.03,SW,224,0.0,0.0,71,0.00,,---,0.00,VWS V14.00,2013-05-23 02:11:00,
2013-05-22 21:14:00,66.7,57.0,29.03,SW,224,0.0,0.0,71,0.00,,---,0.00,VWS V14.00,2013-05-23 02:14:00,
2013-05-22 21:17:00,66.5,57.2,29.03,SW,224,0.0,0.0,72,0.00,,---,0.00,VWS V14.00,2013-05-23 02:17:00,
2013-05-22 21:20:00,66.4,57.1,29.03,SW,224,0.0,0.0,72,0.00,,---,0.00,VWS V14.00,2013-05-23 02:20:00,
2013-05-22 21:21:00,66.4,57.1,29.03,SW,224,0.0,0.0,72,0.00,,---,0.00,VWS V14.00,2013-05-23 02:21:00,
2013-05-22 21:27:00,66.0,57.1,29.06,SW,224,0.0,0.0,73,0.00,,---,0.00,VWS V14.00,2013-05-23 02:27:00,
2013-05-22 21:33:00,66.0,57.1,29.06,SW,224,0.0,0.0,73,0.00,,---,0.00,VWS V14.00,2013-05-23 02:33:00,
2013-05-22 21:36:00,65.6,56.8,29.06,SW,224,0.0,0.0,73,0.00,,---,0.00,VWS V14.00,2013-05-23 02:36:00,
2013-05-22 21:42:00,65.5,57.0,29.06,SW,224,0.0,0.0,74,0.00,,---,0.00,VWS V14.00,2013-05-23 02:42:00,
2013-05-22 21:45:00,65.5,57.0,29.06,SW,224,0.0,0.0,74,0.00,,---,0.00,VWS V14.00,2013-05-23 02:45:00,
2013-05-22 21:48:00,65.5,57.3,29.06,SW,224,0.0,0.0,75,0.00,,---,0.00,VWS V14.00,2013-05-23 02:48:00,
2013-05-22 21:51:00,65.5,57.3,29.06,SW,224,0.0,0.0,75,0.00,,---,0.00,VWS V14.00,2013-05-23 02:51:00,
2013-05-22 21:54:00,65.3,57.5,29.06,SW,224,0.0,0.0,76,0.00,,---,0.00,VWS V14.00,2013-05-23 02:54:00,
2013-05-22 21:57:00,65.3,57.5,29.06,SW,224,0.0,0.0,76,0.00,,---,0.00,VWS V14.00,2013-05-23 02:57:00,
2013-05-22 22:00:00,65.1,57.7,29.06,SW,224,0.0,0.0,77,0.00,,---,0.00,VWS V14.00,2013-05-23 03:00:00,
2013-05-22 22:03:00,65.1,57.7,29.06,SW,224,0.0,0.0,77,0.00,,---,0.00,VWS V14.00,2013-05-23 03:03:00,
2013-05-22 22:06:00,65.1,57.7,29.06,SW,224,0.0,0.0,77,0.00,,---,0.00,VWS V14.00,2013-05-23 03:06:00,
2013-05-22 22:12:00,64.7,57.7,29.06,SW,224,0.0,0.0,78,0.00,,---,0.00,VWS V14.00,2013-05-23 03:12:00,
2013-05-22 22:15:00,64.7,58.1,29.06,SW,224,0.0,0.0,79,0.00,,---,0.00,VWS V14.00,2013-05-23 03:15:00,
2013-05-22 22:18:00,64.6,57.9,29.06,SW,224,0.0,0.0,79,0.00,,---,0.00,VWS V14.00,2013-05-23 03:18:00,
2013-05-22 22:21:00,64.6,57.9,29.06,SW,224,0.0,0.0,79,0.00,,---,0.00,VWS V14.00,2013-05-23 03:21:00,
2013-05-22 22:27:00,64.2,58.3,29.09,SW,224,0.0,0.0,81,0.00,,---,0.00,VWS V14.00,2013-05-23 03:27:00,
2013-05-22 22:30:00,64.2,58.3,29.09,SW,224,0.0,0.0,81,0.00,,---,0.00,VWS V14.00,2013-05-23 03:30:00,
2013-05-22 22:36:00,64.0,58.4,29.09,SW,224,0.0,0.0,82,0.00,,---,0.00,VWS V14.00,2013-05-23 03:36:00,
2013-05-22 22:42:00,63.8,58.2,29.09,SW,224,0.0,0.0,82,0.00,,---,0.00,VWS V14.00,2013-05-23 03:42:00,
2013-05-22 22:45:00,63.8,58.2,29.09,SW,224,0.0,0.0,82,0.00,,---,0.00,VWS V14.00,2013-05-23 03:45:00,
2013-05-22 22:48:00,63.7,58.1,29.09,SW,224,0.0,0.0,82,0.00,,---,0.00,VWS V14.00,2013-05-23 03:48:00,
2013-05-22 22:51:00,63.7,58.1,29.09,SW,224,0.0,0.0,82,0.00,,---,0.00,VWS V14.00,2013-05-23 03:51:00,
2013-05-22 22:57:00,63.5,57.9,29.09,SW,224,0.0,0.0,82,0.00,,---,0.00,VWS V14.00,2013-05-23 03:57:00,
2013-05-22 23:00:00,63.5,58.2,29.09,SW,224,0.0,0.0,83,0.00,,---,0.00,VWS V14.00,2013-05-23 04:00:00,
2013-05-22 23:03:00,63.5,58.2,29.09,SW,224,0.0,0.0,83,0.00,,---,0.00,VWS V14.00,2013-05-23 04:03:00,
2013-05-22 23:06:00,63.5,58.2,29.09,SW,224,0.0,0.0,83,0.00,,---,0.00,VWS V14.00,2013-05-23 04:06:00,
2013-05-22 23:09:00,63.3,58.1,29.09,SW,224,0.0,0.0,83,0.00,,---,0.00,VWS V14.00,2013-05-23 04:09:00,
2013-05-22 23:15:00,63.3,58.1,29.09,SW,224,0.0,0.0,83,0.00,,---,0.00,VWS V14.00,2013-05-23 04:15:00,
2013-05-22 23:21:00,63.1,57.5,29.09,SW,224,0.0,0.0,82,0.00,,---,0.00,VWS V14.00,2013-05-23 04:21:00,
2013-05-22 23:27:00,62.9,57.4,29.09,SW,224,0.0,0.0,82,0.00,,---,0.00,VWS V14.00,2013-05-23 04:27:00,
2013-05-22 23:30:00,62.9,57.4,29.09,SW,224,0.0,0.0,82,0.00,,---,0.00,VWS V14.00,2013-05-23 04:30:00,
2013-05-22 23:33:00,62.9,57.7,29.09,SW,224,0.0,0.0,83,0.00,,---,0.00,VWS V14.00,2013-05-23 04:33:00,
2013-05-22 23:36:00,62.9,57.7,29.09,SW,224,0.0,0.0,83,0.00,,---,0.00,VWS V14.00,2013-05-23 04:36:00,
2013-05-22 23:39:00,62.9,57.7,29.09,SW,224,0.0,0.0,83,0.00,,---,0.00,VWS V14.00,2013-05-23 04:39:00,
2013-05-22 23:42:00,62.8,57.5,29.09,SW,224,0.0,0.0,83,0.00,,---,0.00,VWS V14.00,2013-05-23 04:42:00,
2013-05-22 23:45:00,62.8,57.9,29.09,SW,224,0.0,0.0,84,0.00,,---,0.00,VWS V14.00,2013-05-23 04:45:00,
2013-05-22 23:48:00,62.6,57.7,29.09,SW,224,0.0,0.0,84,0.00,,---,0.00,VWS V14.00,2013-05-23 04:48:00,
2013-05-22 23:51:00,62.6,57.3,29.09,SW,224,0.0,0.0,83,0.00,,---,0.00,VWS V14.00,2013-05-23 04:51:00,
2013-05-22 23:57:00,62.4,57.2,29.09,SW,224,0.0,0.0,83,0.00,,---,0.00,VWS V14.00,2013-05-23 04:57:00,